DELTA 1 DEB

Satellite information

Favourite Embed

Satellite Type and Status

DEBRISIN ORBIT

Key statistics

Satellite DELTA 1 DEB at a glance.

Uptime

18407

Days in orbit

Revolutions

≈ 12.9

Per day

Orbit

SSO

Sun Synchronous Orbit

Inclination

99.6

Latest

Satellite identification and parameters

Extended collection of information and parameters for DELTA 1 DEB.

Object identification

Identified? True

Debris? True

Object name: DELTA 1 DEB

International designator: 1975-052DE

Object number (NORAD): 21384

Object ID (CCSDS): 21384

Country: UNITED STATES OF AMERICA (US)

Current information (Y/N): Y

RCS size: SMALL

Orbital parameters

Period: 111.521 minutes

Inclination: 99.6484 deg

SMA: 7674.765 km

Apoapsis: 1523.429 km

Periapsis: 1069.831 km

RAAN: 175.4758 deg

Eccentricy: 0.02955122

Argument of periapsis: 339.1425 deg

Mean anomaly: 143.3989 deg

Mean motion: 12.91234526 rev/day

Mean motion (dot): 0.00000217 rev/day2

B* drag term: 0.00078884287 1/REarth

Two-line elements (TLE)

Creation date: Nov. 1, 2025, 7:40 p.m.

Reference frame: TEME

Reference center: EARTH

Epoch: Nov. 1, 2025, 5:16 a.m. UTC

TLE line 0: 0 DELTA 1 DEB

TLE line 1: 1 21384U 75052DE 25305.21977977 .00000217 00000-0 78884-3 0 9999

TLE line 2: 2 21384 99.6484 175.4758 0295512 339.1425 143.3989 12.91234526621504

Live tracking on map

Real-time ground track for satellite DELTA 1 DEB.

In-orbit conjunctions

A list of the most updated potential collisions computed for object DELTA 1 DEB.

Target Orbit TCA Probability of collision Miss distance Type
COSMOS 531 LEO 2024-09-26 04:19:26 0.0001551645 472.0 (m) PAYLOAD

Associated space launch

Experimental meteorological satellite

DELTA 1 DEB was lifted into orbit during the mission ‘Delta 2910 | Nimbus 6’, on board a Delta 2910 space rocket.

The launch took place on June 12, 1975, 8:12 a.m. from Space Launch Complex 2W.

For more information about the launch, click the button.

Launch to space Delta 2910 | Nimbus 6
Delta 2910 | Nimbus 6

Agency: N/A

Status: Launch Successful

Launch date: June 12, 1975, 8:12 a.m. UTC

Rocket: Delta 2910

Launch pad: Space Launch Complex 2W

Location: Vandenberg SFB, CA, USA

...

Latest news about this satellite

There are no fresh news available about this satellite. Check back as we update our databases every day.


Newsletter sign-up

Weekly statistics, charts and insights to help you stay on top of the space industry.